Погода в Алтуде

Россия / Кабардино-Балкарская Республика     43°43′15″N   43°52′13″E
темп.,
°C
ветер,
м/с
пор.,
м/с
влажн.,
%
обл.,
%
осадки,
мм/ч
давл.,
гПа
погр.,
м
14 апреля, ср
ср1400:00+8зсз228944 0.1 101823
03:00+8з2288100 0.1 101813
06:00+8ю0084100 0.0 101811
09:00+12сз4662100 0.0 1017767
12:00+14с2355100 0.0 10171262
15:00+15ссз3352100 0.0 10161457
18:00+13ссз356448 0.0 1017204
21:00+11сз1173100 0.0 101814
15 апреля, чт
чт1500:00+9з118021 0.0 101810
03:00+8юз22873 0.0 101810
06:00+8юз11820 0.0 101810
09:00+14зсз01560 0.0 1018506
12:00+18с22395 0.0 10161515
15:00+20с333135 0.0 10151973
18:00+17св2348100 0.0 101645
21:00+13ссв115764 0.1 101811
16 апреля, пт
пт1600:00+11ссз11628 0.0 101710
03:00+10зсз11685 0.0 101810
06:00+10юз11709 0.0 101810
09:00+16вюв34525 0.0 1018540
12:00+19вюв454159 0.0 10161522
15:00+20в554092 0.0 10151942
18:00+17в4856100 0.1 1015227
21:00+14юз117681 2.1 101822
17 апреля, сб
сб1700:00+12ссз5887100 0.1 1019301
03:00+10сз239499 0.1 101957
06:00+10сз3887100 0.0 1020308
09:00+11с6887100 0.1 1022750
12:00+10с2587100 1.2 1023448
15:00+10св2283100 1.3 1024426
18:00+10ю1289100 0.0 102477
21:00+9ююв2490100 0.1 1023158
18 апреля, вс
вс1800:00+9юв2388100 0.0 1022108
03:00+9юв2290100 0.0 102244
06:00+9в2492100 0.0 1022171
09:00+11в3485100 0.0 1022479
12:00+16вюв4568100 0.0 10201009
15:00+15в5570100 0.0 1019739
18:00+14вюв2679100 0.3 1020316
21:00+11вюв11886 0.4 102010